Vorticity
16 12 19 16 9 16 4 14 25 11 9 12 14 10 9 7 8 8 7 7 6 7 7 6 6 6 5 5 5 4 3 6 7 7 3 3 8 8 10 8 6 8 3 5 3
12 18 12 17 5 17 -1 8 11 9 12 13 14 9 8 9 8 7 6 7 6 7 6 4 6 6 5 5 5 4 4 5 -1 2 1 5 10 6 9 7 7 5 3 8 8
14 8 11 11 14 9 6 -7 20 11 12 16 12 9 6 11 7 8 5 7 6 5 6 8 6 4 6 6 5 4 -0 4 2 6 6 9 8 8 5 7 1 8 -1 -0 2
5 11 13 5 -7 4 -2 14 15 10 12 18 11 9 8 10 -0 7 7 7 7 6 7 6 10 5 7 5 6 4 5 2 5 10 9 6 5 3 4 8 3 3 6 4 6
10 5 4 20 -9 27 8 18 11 12 14 15 9 9 9 8 8 7 7 7 7 7 8 7 7 6 5 7 6 3 5 8 10 8 5 5 4 3 5 5 8 5 8 6 7
18 21 6 18 18 -44 18 11 13 12 13 11 9 10 7 7 9 7 7 8 8 8 7 7 9 1 8 2 6 9 12 9 6 5 3 3 4 4 7 11 11 6 7 9 9
30 14 32 24 40 36 12 14 12 11 9 9 7 5 13 14 14 8 7 8 9 8 8 6 5 4 7 10 9 9 6 5 4 3 3 4 10 6 3 6 7 8 6 7 8
1 29 23 15 13 12 13 10 8 8 11 5 10 17 10 12 12 9 9 7 6 5 5 5 6 7 9 3 11 5 6 9 6 4 2 6 3 7 3 8 7 9 14 13 12
1 7 8 8 9 8 5 7 7 8 7 8 3 13 10 9 9 7 5 7 5 5 7 7 8 7 7 6 5 9 -5 6 7 0 6 7 2 8 4 13 15 9 12 11 12
6 6 7 6 6 6 5 4 5 13 8 9 7 -4 14 7 6 6 6 6 6 7 7 7 7 5 5 5 5 7 1 2 5 -4 0 8 9 17 13 12 12 10 10 19 16
6 5 5 3 4 5 6 6 7 -2 -22 18 -11 36 7 5 5 5 6 6 6 6 6 6 4 4 6 7 6 4 6 8 10 -4 10 4 13 7 13 16 14 17 19 10 6
5 5 6 6 3 4 2 -1 2 7 15 18 11 8 6 5 8 8 6 5 6 7 6 7 5 6 6 7 7 8 8 4 14 2 7 10 12 27 28 23 16 11 7 7 12
7 3 4 3 6 3 7 5 11 10 6 8 11 8 7 8 10 9 6 9 7 7 5 4 5 8 8 6 6 8 4 9 5 6 19 6 38 -0 5 17 15 7 7 9 9
10 13 9 10 5 8 5 9 0 1 8 11 4 7 10 11 6 8 8 4 6 7 7 10 9 7 7 7 8 12 6 2 5 14 8 17 5 10 7 25 9 6 5 10 7
6 9 9 10 9 7 9 -5 2 -2 2 13 6 15 8 -4 12 10 8 9 10 8 4 3 8 8 5 8 6 3 6 8 9 24 18 2 19 3 7 24 9 4 2 4 5
5 6 9 7 10 13 -4 -0 3 7 10 8 10 10 5 7 3 13 6 7 7 8 8 6 7 8 9 5 4 5 12 23 16 17 12 4 10 12 6 9 8 4 2 1 6
17 11 7 6 3 1 -1 5 10 15 25 15 9 8 6 8 8 10 8 8 2 10 12 10 8 7 5 8 14 8 15 14 13 10 1 1 22 -0 3 19 7 3 9 5 4
13 15 19 14 10 3 7 9 11 11 3 12 12 7 7 5 10 8 8 10 7 8 7 6 13 15 13 13 0 11 12 13 10 9 -9 12 17 13 -5 -1 14 8 4 4 2
6 8 14 17 18 15 12 8 9 9 10 14 8 2 8 6 10 6 7 2 7 9 8 6 12 6 10 6 7 3 6 3 8 18 17 9 13 10 9 28 9 1 2 5 2
10 3 6 11 17 13 11 8 17 11 12 1 4 4 9 10 6 10 10 12 14 8 8 10 8 13 16 11 11 4 -1 6 10 9 14 22 7 -0 4 13 10 8 3 0 -1
14 12 6 5 7 11 15 18 16 13 11 -2 8 12 3 9 5 8 3 7 11 8 5 1 13 -0 10 10 9 18 6 10 7 3 4 7 14 -0 2 6 17 7 3 0 -5
14 18 12 7 9 7 9 12 11 7 -1 10 12 10 4 11 11 5 1 4 13 10 4 7 10 8 1 5 4 2 -2 4 -1 16 6 -1 12 21 13 24 10 0 3 1 -5
14 10 12 15 11 8 8 12 7 7 7 8 7 8 10 7 7 14 10 14 8 10 9 6 7 11 12 25 30 21 22 16 1 -2 15 -3 8 11 17 4 3 4 3 -7 23
18 13 10 17 12 10 8 7 5 12 8 7 4 9 9 6 10 -0 4 9 4 7 4 8 14 -3 -20 -16 -16 -7 -14 -0 11 5 2 -21 -27 -19 16 -24 -3 -4 -0 17 12
15 7 11 3 13 13 12 4 11 10 11 6 11 13 11 10 9 13 16 16 9 6 5 11 5 7 6 10 12 8 6 9 -3 4 -17 -16 -12 32 -0 3 7 17 23 8 8
16 17 12 11 12 10 11 9 10 13 11 11 12 11 9 9 0 -2 2 8 14 9 8 9 12 3 3 34 29 11 11 11 18 21 3 11 12 33 29 28 26 -3 9 17 12
12 12 16 9 7 13 13 12 9 9 11 12 13 9 5 7 9 9 7 6 -1 0 4 14 13 2 20 2 -3 49 43 32 42 41 20 29 25 17 7 3 10 14 4 3 4
Height
3015 3021 3026 3032 3040 3045 3052 3057 3061 3065 3070 3074 3080 3088 3095 3102 3108 3112 3118 3122 3126 3131 3134 3138 3140 3143 3146 3149 3152 3154 3158 3159 3159 3160 3158 3158 3158 3159 3159 3159 3158 3158 3157 3157 3156
3019 3024 3030 3035 3041 3047 3053 3057 3059 3065 3070 3075 3081 3087 3095 3102 3108 3114 3118 3121 3126 3130 3133 3136 3140 3142 3146 3148 3151 3153 3156 3157 3157 3157 3156 3156 3157 3155 3157 3157 3156 3155 3153 3154 3153
3027 3031 3034 3039 3044 3049 3053 3057 3062 3066 3071 3077 3081 3088 3096 3102 3110 3114 3118 3121 3125 3130 3133 3138 3139 3142 3146 3147 3150 3151 3152 3154 3155 3156 3156 3155 3155 3155 3155 3155 3153 3152 3149 3149 3151
3036 3038 3040 3043 3046 3051 3054 3060 3064 3068 3073 3080 3082 3089 3096 3103 3112 3114 3118 3122 3126 3130 3133 3137 3139 3142 3144 3146 3149 3150 3151 3152 3154 3154 3154 3153 3153 3153 3153 3153 3151 3150 3149 3146 3146
3040 3042 3044 3047 3046 3052 3056 3061 3067 3071 3076 3082 3084 3090 3097 3105 3110 3115 3119 3123 3126 3129 3134 3136 3139 3141 3144 3145 3147 3148 3150 3150 3151 3152 3151 3151 3151 3150 3150 3149 3148 3146 3146 3145 3143
3043 3043 3043 3048 3052 3056 3062 3065 3070 3074 3081 3086 3088 3093 3100 3106 3110 3115 3120 3124 3127 3130 3133 3136 3140 3141 3144 3145 3146 3147 3148 3148 3149 3150 3149 3149 3148 3146 3147 3145 3144 3142 3141 3140 3139
3048 3046 3048 3055 3055 3060 3068 3071 3075 3079 3086 3090 3091 3096 3103 3107 3110 3117 3121 3125 3128 3131 3134 3136 3140 3142 3143 3145 3146 3146 3147 3147 3148 3147 3146 3145 3145 3143 3142 3141 3140 3138 3137 3136 3134
3060 3059 3065 3063 3064 3069 3073 3078 3081 3087 3093 3095 3096 3100 3103 3108 3114 3117 3121 3126 3129 3131 3135 3136 3139 3141 3143 3145 3145 3146 3146 3145 3145 3145 3145 3144 3140 3138 3137 3137 3136 3133 3131 3131 3130
3070 3070 3072 3073 3075 3078 3081 3083 3088 3093 3098 3098 3100 3104 3108 3112 3116 3120 3124 3127 3130 3132 3135 3136 3139 3140 3143 3145 3146 3145 3145 3144 3142 3141 3141 3140 3137 3137 3132 3131 3131 3129 3128 3127 3126
3079 3080 3081 3081 3083 3086 3087 3090 3095 3101 3102 3101 3105 3109 3112 3115 3119 3122 3125 3128 3130 3133 3135 3137 3138 3139 3142 3144 3145 3143 3143 3143 3141 3138 3136 3135 3131 3132 3128 3126 3126 3125 3125 3124 3124
3087 3088 3088 3089 3090 3091 3093 3096 3104 3106 3104 3105 3108 3110 3113 3117 3120 3123 3126 3128 3130 3133 3134 3136 3138 3139 3142 3143 3144 3143 3142 3139 3139 3135 3134 3132 3127 3125 3122 3121 3121 3122 3122 3122 3122
3094 3094 3094 3095 3096 3097 3099 3103 3105 3107 3107 3108 3110 3113 3114 3117 3121 3123 3126 3129 3130 3132 3134 3137 3138 3140 3139 3141 3142 3140 3138 3136 3135 3134 3130 3127 3123 3120 3118 3117 3119 3120 3121 3121 3121
3099 3099 3099 3099 3100 3103 3104 3106 3107 3109 3110 3113 3114 3115 3118 3121 3122 3124 3127 3128 3130 3133 3134 3135 3137 3136 3138 3140 3139 3137 3135 3135 3133 3130 3127 3124 3120 3119 3118 3118 3118 3119 3120 3120 3120
3104 3104 3104 3104 3106 3106 3108 3109 3110 3112 3113 3117 3117 3118 3120 3121 3124 3126 3127 3130 3131 3132 3133 3134 3134 3136 3137 3137 3137 3135 3134 3132 3130 3128 3127 3124 3122 3118 3118 3117 3118 3119 3119 3119 3119
3107 3106 3106 3107 3108 3109 3111 3112 3112 3113 3115 3120 3119 3119 3120 3124 3125 3126 3127 3129 3130 3131 3133 3134 3134 3135 3135 3136 3135 3134 3132 3131 3128 3125 3124 3123 3123 3118 3118 3117 3118 3117 3118 3118 3118
3111 3110 3110 3111 3112 3112 3113 3113 3114 3116 3116 3118 3119 3120 3122 3122 3124 3125 3127 3129 3130 3130 3130 3132 3133 3134 3134 3134 3133 3133 3131 3127 3125 3123 3124 3122 3122 3118 3118 3118 3118 3115 3117 3117 3117
3113 3113 3113 3113 3114 3115 3115 3116 3117 3115 3118 3119 3119 3120 3121 3123 3125 3126 3127 3128 3129 3130 3130 3131 3131 3132 3132 3132 3131 3130 3128 3126 3128 3125 3124 3121 3120 3116 3116 3117 3115 3114 3116 3116 3116
3115 3114 3114 3114 3115 3116 3116 3117 3116 3116 3116 3118 3119 3121 3123 3124 3125 3126 3127 3127 3128 3129 3130 3130 3129 3129 3129 3129 3129 3127 3127 3127 3133 3131 3123 3118 3116 3116 3115 3114 3115 3114 3114 3113 3113
3117 3117 3115 3115 3115 3115 3117 3116 3116 3116 3118 3119 3121 3122 3123 3124 3126 3126 3126 3127 3127 3128 3130 3129 3128 3127 3127 3127 3128 3127 3127 3128 3127 3126 3125 3116 3116 3114 3113 3111 3112 3111 3110 3110 3110
3120 3119 3117 3117 3116 3116 3117 3116 3116 3117 3118 3120 3122 3123 3124 3124 3126 3126 3125 3126 3126 3127 3127 3127 3127 3124 3124 3125 3125 3126 3128 3128 3127 3129 3127 3114 3113 3111 3111 3109 3108 3109 3107 3106 3106
3121 3120 3119 3118 3118 3118 3117 3116 3117 3118 3120 3121 3121 3122 3123 3124 3124 3125 3125 3125 3124 3125 3125 3125 3126 3125 3124 3123 3122 3124 3124 3125 3126 3126 3126 3122 3112 3111 3110 3109 3109 3106 3105 3103 3103
3121 3121 3120 3119 3121 3118 3118 3118 3119 3120 3121 3121 3122 3122 3123 3123 3123 3124 3124 3123 3123 3124 3123 3124 3123 3122 3122 3121 3121 3121 3122 3123 3125 3125 3123 3122 3112 3109 3109 3108 3106 3104 3101 3101 3100
3123 3121 3121 3120 3119 3119 3119 3119 3119 3120 3121 3121 3121 3122 3122 3122 3124 3122 3122 3122 3122 3122 3121 3122 3121 3121 3119 3120 3118 3118 3119 3121 3122 3121 3118 3120 3111 3109 3108 3107 3104 3099 3098 3098 3095
3124 3122 3121 3120 3119 3119 3119 3119 3119 3120 3120 3120 3121 3121 3121 3121 3122 3121 3120 3121 3121 3121 3121 3120 3119 3119 3118 3118 3117 3116 3117 3117 3117 3115 3111 3106 3107 3107 3106 3102 3100 3097 3094 3093 3091
3125 3124 3122 3120 3119 3119 3119 3119 3119 3119 3119 3120 3119 3120 3120 3120 3120 3119 3119 3118 3118 3118 3117 3117 3115 3115 3114 3113 3113 3111 3109 3110 3107 3106 3105 3100 3101 3102 3101 3096 3093 3093 3089 3088 3086
3125 3124 3121 3120 3119 3118 3117 3118 3117 3118 3119 3119 3119 3119 3119 3119 3119 3118 3117 3117 3115 3115 3114 3114 3112 3110 3107 3108 3105 3102 3101 3099 3097 3097 3095 3094 3089 3095 3092 3089 3088 3087 3084 3082 3080
3124 3122 3121 3119 3118 3118 3117 3116 3116 3116 3117 3117 3116 3116 3117 3117 3116 3116 3115 3114 3113 3111 3111 3110 3109 3108 3102 3102 3100 3095 3090 3089 3088 3089 3091 3089 3090 3088 3086 3083 3083 3082 3079 3077 3073